User: anonymous   Login
Location: Unspecified
(0.0000°N, 0.0000°E)
Time: 10:46:05
(UTC+02:00)
Language:

Sapphire - Orbit

View from above orbital plane
View from above orbital plane
View from above satellite
View from above satellite

Ground track
Ground track

The orbit data is extracted from the following two-line orbital elements,

1 26932U 01043D   15113.82246588  .00000153  00000-0  90904-4 0  9999
2 26932 067.0561 318.6181 0007266 251.5622 108.4689 14.30134160708061
Epoch (UTC): 23 April 2015 19:44:21
Eccentricity: 0.0007266
inclination: 67.0561°
perigee height: 786 km
apogee height: 796 km
right ascension of ascending node: 318.6181°
argument of perigee: 251.5622°
revolutions per day: 14.30134160
mean anomaly at epoch: 108.4689°
orbit number at epoch: 70806

The dashed part of the orbit path shows where the satellite is in the earth's shadow,  

DLR